FW0152 Weather Reports


time (UTC)temp
F
wind
direction
speed
knots
gust
knots
rain 1hr
in
rain 24hr
in
rain mn
in
humidity
%
barometer
mb
20260505031541 51 0 0.0 4.3 0.00 0.00 0.00 80 1012.1
20260505031025 51 159 0.0 4.3 0.00 0.00 0.00 80 1012.0
20260505030527 51 236 0.9 7.0 0.00 0.00 0.00 79 1012.2
20260505030038 51 167 0.0 7.0 0.00 0.00 0.00 80 1012.2
20260505025529 51 277 0.9 3.5 0.00 0.00 0.00 79 1012.2
20260505025026 51 211 0.9 3.5 0.00 0.00 0.00 79 1012.2
20260505024536 51 0 0.9 3.5 0.00 0.00 0.00 79 1012.2
20260505024023 51 151 0.0 4.3 0.00 0.00 0.00 79 1012.2
20260505023526 51 0 0.9 4.3 0.00 0.00 0.00 78 1012.2
20260505023047 51 256 0.9 4.3 0.00 0.00 0.00 78 1012.3
20260505022529 52 209 0.9 3.5 0.00 0.00 0.00 78 1012.2
20260505022026 52 219 0.9 4.3 0.00 0.00 0.00 78 1012.3
20260505021536 52 0 0.9 4.3 0.00 0.00 0.00 77 1012.3
20260505021029 52 185 0.9 4.3 0.00 0.00 0.00 77 1012.4
20260505020526 52 0 0.9 5.2 0.00 0.00 0.00 77 1012.4
20260505020048 52 360 0.9 5.2 0.00 0.00 0.00 76 1012.3
20260505015526 52 212 0.0 2.6 0.00 0.00 0.00 76 1012.3
20260505015026 52 0 0.0 7.0 0.00 0.00 0.00 75 1012.3
20260505014540 52 159 0.0 7.0 0.00 0.00 0.00 75 1012.3
20260505014025 52 360 0.9 7.0 0.00 0.00 0.00 75 1012.3
20260505013526 52 360 0.9 3.5 0.00 0.00 0.00 75 1012.2
20260505013037 52 360 0.0 9.6 0.00 0.00 0.00 74 1012.1
20260505012526 53 158 0.9 9.6 0.00 0.00 0.00 74 1012.0
20260505012026 53 225 1.7 9.6 0.00 0.00 0.00 74 1012.0
20260505011537 53 229 1.7 6.1 0.00 0.00 0.00 73 1011.8
20260505011026 53 179 0.9 4.3 0.00 0.00 0.00 73 1011.9
20260505010526 53 227 1.7 5.2 0.00 0.00 0.00 73 1011.8
20260505010042 53 28 0.9 6.1 0.00 0.00 0.00 72 1011.6
20260505005526 54 170 1.7 6.1 0.00 0.00 0.00 72 1011.6
20260505005026 54 182 0.9 10.4 0.00 0.00 0.00 72 1011.4
20260505004547 54 242 1.7 10.4 0.00 0.00 0.00 71 1011.4
20260505004024 54 234 1.7 7.8 0.00 0.00 0.00 71 1011.4
20260505003525 54 239 1.7 7.8 0.00 0.00 0.00 71 1011.2
20260505003040 54 209 2.6 7.8 0.00 0.00 0.00 70 1011.1
20260505002526 55 193 1.7 9.6 0.00 0.00 0.00 70 1011.1
20260505002026 55 136 2.6 9.6 0.00 0.00 0.00 69 1010.9
20260505001537 55 236 1.7 8.7 0.00 0.00 0.00 68 1010.8
20260505001029 55 207 3.5 8.7 0.00 0.00 0.00 68 1010.8
20260505000528 55 312 1.7 7.8 0.00 0.00 0.00 67 1010.6
20260505000037 56 230 2.6 10.4 0.00 0.00 0.00 66 1010.8
20260504235526 56 221 2.6 10.4 0.00 0.00 0.00 66 1010.5
20260504235027 56 167 1.7 6.1 0.00 0.00 0.00 65 1010.5
20260504234600 56 221 2.6 6.1 0.00 0.00 0.00 64 1010.4
20260504234023 56 229 2.6 7.0 0.00 0.00 0.00 63 1010.4
20260504233526 56 120 0.9 7.0 0.00 0.00 0.00 62 1010.3
20260504233040 57 237 1.7 9.6 0.00 0.00 0.00 61 1010.6
20260504232526 57 360 1.7 9.6 0.00 0.00 0.00 61 1010.3
20260504232022 57 360 2.6 10.4 0.00 0.00 0.00 60 1010.3
20260504231550 57 164 2.6 11.3 0.00 0.00 0.00 59 1010.2
20260504231025 58 207 3.5 11.3 0.00 0.00 0.00 58 1010.1
20260504230526 58 160 3.5 11.3 0.00 0.00 0.00 57 1010.0
20260504230040 58 360 3.5 9.6 0.00 0.00 0.00 56 1010.1
20260504225528 58 211 3.5 9.6 0.00 0.00 0.00 55 1010.1
20260504225029 59 360 2.6 9.6 0.00 0.00 0.00 54 1010.0
20260504224537 59 360 1.7 7.0 0.00 0.00 0.00 53 1010.2
20260504224026 60 360 1.7 7.0 0.00 0.00 0.00 52 1010.1
20260504223526 60 360 0.9 7.8 0.00 0.00 0.00 51 1009.9
20260504223039 60 360 1.7 7.8 0.00 0.00 0.00 49 1010.0
20260504222528 61 229 2.6 8.7 0.00 0.00 0.00 48 1009.9
20260504222026 62 211 2.6 8.7 0.00 0.00 0.00 46 1009.8
20260504221547 62 218 2.6 7.8 0.00 0.00 0.00 45 1009.8
20260504221031 62 206 1.7 7.8 0.00 0.00 0.00 44 1009.8
20260504220526 62 192 3.5 7.8 0.00 0.00 0.00 44 1009.9
20260504220042 63 175 2.6 7.0 0.00 0.00 0.00 44 1009.8
20260504215526 63 196 2.6 7.0 0.00 0.00 0.00 43 1010.0
20260504215027 63 189 2.6 7.0 0.00 0.00 0.00 42 1009.9
20260504214541 63 315 1.7 8.7 0.00 0.00 0.00 48 1009.9
20260504214026 64 339 2.6 8.7 0.00 0.00 0.00 42 1009.8
20260504213531 64 174 1.7 6.1 0.00 0.00 0.00 42 1009.8
20260504213037 64 220 1.7 13.0 0.00 0.00 0.00 43 1009.8
20260504212528 64 248 3.5 13.0 0.00 0.00 0.00 42 1009.7
20260504212030 65 178 2.6 8.7 0.00 0.00 0.00 42 1009.7
20260504211539 65 260 2.6 8.7 0.00 0.00 0.00 42 1009.6
20260504211026 65 184 3.5 8.7 0.00 0.00 0.00 42 1009.6
20260504210526 65 186 2.6 9.6 0.00 0.00 0.00 41 1009.7
20260504210037 66 213 2.6 9.6 0.00 0.00 0.00 41 1009.6
20260504205529 66 159 1.7 15.6 0.00 0.00 0.00 40 1009.6
20260504205025 66 124 2.6 15.6 0.00 0.00 0.00 40 1009.5
20260504204618 67 294 3.5 15.6 0.00 0.00 0.00 39 1009.4
20260504204026 67 216 2.6 7.8 0.00 0.00 0.00 43 1009.5
20260504203528 67 257 2.6 9.6 0.00 0.00 0.00 38 1009.4
20260504203040 67 28 4.3 9.6 0.00 0.00 0.00 37 1009.4
20260504202527 67 72 2.6 17.4 0.00 0.00 0.00 38 1009.3
20260504202026 68 223 3.5 17.4 0.00 0.00 0.00 36 1009.5
20260504201538 68 228 1.7 14.8 0.00 0.00 0.00 36 1009.5
20260504201026 68 294 5.2 14.8 0.00 0.00 0.00 35 1009.3
20260504200527 68 146 5.2 14.8 0.00 0.00 0.00 36 1009.4
20260504200041 68 186 2.6 13.0 0.00 0.00 0.00 42 1009.4
20260504195527 68 123 1.7 13.0 0.00 0.00 0.00 36 1009.5
20260504195026 68 200 4.3 13.0 0.00 0.00 0.00 35 1009.4
20260504194546 68 237 1.7 7.8 0.00 0.00 0.00 35 1009.5
20260504194029 68 171 2.6 9.6 0.00 0.00 0.00 34 1009.4
20260504193525 69 158 3.5 18.2 0.00 0.00 0.00 34 1009.4
20260504193039 69 313 5.2 18.2 0.00 0.00 0.00 38 1009.3
20260504192528 68 306 3.5 8.7 0.00 0.00 0.00 33 1009.5
20260504192026 68 236 3.5 13.0 0.00 0.00 0.00 34 1009.5
20260504191538 68 337 2.6 13.0 0.00 0.00 0.00 35 1009.5
20260504191027 68 180 2.6 9.6 0.00 0.00 0.00 34 1009.6
20260504190559 68 194 2.6 11.3 0.00 0.00 0.00 33 1009.7
20260504190042 67 225 4.3 12.2 0.00 0.00 0.00 32 1009.7
20260504185526 68 232 4.3 13.9 0.00 0.00 0.00 32 1009.7
20260504185027 68 225 3.5 13.9 0.00 0.00 0.00 31 1009.9
20260504184546 68 196 5.2 9.6 0.00 0.00 0.00 30 1009.8
20260504184027 68 275 2.6 10.4 0.00 0.00 0.00 31 1009.9
20260504183526 68 249 4.3 14.8 0.00 0.00 0.00 30 1010.0
20260504183037 68 219 4.3 14.8 0.00 0.00 0.00 31 1010.0
20260504182528 68 290 2.6 10.4 0.00 0.00 0.00 33 1010.0
20260504182029 68 246 3.5 10.4 0.00 0.00 0.00 38 1010.1
20260504181542 68 323 4.3 10.4 0.00 0.00 0.00 31 1010.1
20260504181026 68 180 1.7 17.4 0.00 0.00 0.00 31 1010.1
20260504180527 69 225 3.5 17.4 0.00 0.00 0.00 32 1010.1
20260504180040 69 254 2.6 16.5 0.00 0.00 0.00 30 1009.9
20260504175525 69 275 4.3 12.2 0.00 0.00 0.00 30 1010.0
20260504175027 69 228 4.3 13.0 0.00 0.00 0.00 30 1010.0
20260504174539 69 238 5.2 13.9 0.00 0.00 0.00 35 1010.0
20260504174026 69 275 6.1 13.9 0.00 0.00 0.00 29 1010.0
20260504173528 69 244 5.2 13.0 0.00 0.00 0.00 28 1009.9
20260504173038 69 252 4.3 13.0 0.00 0.00 0.00 28 1009.9
20260504172526 69 186 4.3 13.0 0.00 0.00 0.00 28 1010.0
20260504172026 69 24 3.5 12.2 0.00 0.00 0.00 30 1010.1
20260504171544 69 201 3.5 14.8 0.00 0.00 0.00 27 1010.1
20260504171024 69 225 5.2 14.8 0.00 0.00 0.00 33 1010.2
20260504170526 69 117 5.2 12.2 0.00 0.00 0.00 29 1010.2
20260504151030 68 168 4.3 9.6 0.00 0.00 0.00 31 1011.1
20260504150527 67 325 4.3 13.9 0.00 0.00 0.00 35 1011.0
20260504141029 65 32 1.7 7.0 0.00 0.00 0.00 40 1011.5
20260504140527 65 0 2.6 7.0 0.00 0.00 0.00 40 1011.5
20260504130525 61 220 1.7 7.8 0.00 0.00 0.00 39 1012.1
20260504110527 47 0 0.0 2.6 0.00 0.00 0.00 69 1012.2
20260504100526 43 0 0.0 1.7 0.00 0.00 0.00 69 1012.1
20260504081539 44 242 0.0 0.9 0.00 0.00 0.00 66 1011.7
20260504081026 44 0 0.0 0.9 0.00 0.00 0.00 66 1011.7
20260504080529 44 0 0.0 0.9 0.00 0.00 0.00 66 1011.8
20260504050528 40 0 0.0 1.7 0.00 0.00 0.00 64 1011.6
20260504045526 40 292 0.0 0.0 0.00 0.00 0.00 63 1011.7
20260504045025 40 0 0.0 0.0 0.00 0.00 0.00 63 1011.7
20260504044541 40 0 0.0 0.0 0.00 0.00 0.00 63 1011.8
20260504044025 40 0 0.0 0.0 0.00 0.00 0.00 63 1011.7
20260504043527 40 0 0.0 0.0 0.00 0.00 0.00 62 1011.8
20260504043039 39 0 0.0 0.0 0.00 0.00 0.00 63 1011.8
20260504042528 40 0 0.0 0.0 0.00 0.00 0.00 63 1011.8
20260504042031 40 0 0.0 0.0 0.00 0.00 0.00 63 1011.7
20260504041539 40 0 0.0 0.0 0.00 0.00 0.00 62 1011.6
20260504041027 40 0 0.0 0.0 0.00 0.00 0.00 62 1011.6
20260504040529 40 0 0.0 0.0 0.00 0.00 0.00 63 1011.7
20260504040038 40 0 0.0 0.0 0.00 0.00 0.00 63 1011.7
20260504035527 40 0 0.0 0.0 0.00 0.00 0.00 62 1011.7
20260504035027 40 0 0.0 0.0 0.00 0.00 0.00 62 1011.6
20260504034546 40 0 0.0 0.0 0.00 0.00 0.00 62 1011.5
20260504034026 41 0 0.0 0.0 0.00 0.00 0.00 61 1011.5
20260504033529 41 0 0.0 0.0 0.00 0.00 0.00 61 1011.5
20260504033038 41 0 0.0 0.0 0.00 0.00 0.00 60 1011.4
20260504032528 41 0 0.0 0.0 0.00 0.00 0.00 59 1011.4
20260504032024 42 0 0.0 0.9 0.00 0.00 0.00 59 1011.3